Location: Gunnison Valley Observatory
(38.5087°N, 106.9386°W)
Time: 09:11:31
(UTC-06:00)

Amateur Radio Satellites - All Passes

Search period start: 01 July 2016 08:41
Search period end: 02 July 2016 08:41
Location: Gunnison Valley Observatory, 38.5087°N, 106.9386°W

Satellite Date Start Highest point End Downlink Frequencies (MHz)
Time Altitude Azimuth
DOVE 4 01 Jul 08:46:26 08:50:40 47° 286° (WNW) 08:55:07 437.250
PHONESAT 2.4 01 Jul 08:47:18 08:50:21 58° 5° (N) 08:53:23 2401.200-2431.200
CUTE-I 01 Jul 08:53:13 08:56:58 19° 296° (WNW) 09:00:40 437.470
CUBEBUG 2 01 Jul 08:57:22 09:00:45 20° 94° (E) 09:04:09 437.445
DANDE 01 Jul 08:59:07 09:07:17 53° 283° (WNW) 09:14:41 436.750
ZACube-1 01 Jul 09:11:51 09:13:28 12° 90° (E) 09:15:05 437.345
COMPASS 1 01 Jul 09:12:24 09:16:19 38° 98° (E) 09:20:11 437.405
Oscar 11 01 Jul 09:15:30 09:17:24 13° 91° (E) 09:19:19 145.826/435.025
CINEMA 3 01 Jul 09:19:39 09:24:17 74° 284° (WNW) 09:29:06 145.822/145.860
CANX-2 01 Jul 09:22:24 09:26:40 66° 285° (WNW) 09:30:52 2200.000
FUNcube-1 01 Jul 09:26:35 09:29:29 16° 92° (E) 09:32:22 145.935
AUBIESAT-1 01 Jul 09:31:27 09:34:04 16° 100° (E) 09:36:46 437.475
UWE-3 01 Jul 09:37:36 09:41:52 36° 97° (E) 09:46:09 435.000/436.395/437.385
SEEDS 01 Jul 09:40:08 09:44:21 67° 284° (WNW) 09:48:31 437.485
CUTE 1.7 + AOD 2 01 Jul 09:41:56 09:46:01 45° 287° (WNW) 09:50:04 437.475
DELFI C3 01 Jul 09:57:37 10:00:02 16° 93° (E) 10:02:26 145.870
PRISM 01 Jul 10:00:41 10:03:13 16° 266° (W) 10:05:45 437.425
TIGRISAT 01 Jul 10:02:11 10:05:52 28° 69° (ENE) 10:09:38 435.000
RS-15 01 Jul 10:06:36 10:14:48 24° 100° (E) 10:23:14 29.354- 29.394
UNISAT 6 01 Jul 10:08:06 10:12:01 35° 71° (ENE) 10:16:02 437.425
AAUSAT CUBESAT 2 01 Jul 10:10:30 10:14:34 53° 286° (WNW) 10:18:35 437.432
M-CUBED/EXP-1 PRIME 01 Jul 10:12:17 10:16:16 59° 105° (ESE) 10:20:33 437.505
HO-68 01 Jul 10:13:11 10:19:57 46° 293° (WNW) 10:26:43 435.675
ISS 01 Jul 10:19:28 10:20:31 11° 346° (NNW) 10:21:34 145.825
BEESAT 2 01 Jul 10:19:29 10:21:17 13° 44° (NE) 10:23:05 435.950
PHONESAT 2.4 01 Jul 10:23:57 10:26:58 55° 201° (SSW) 10:29:59 2401.200-2431.200
CUBEBUG 2 01 Jul 10:33:08 10:37:27 39° 288° (WNW) 10:41:51 437.445
PCSat 01 Jul 10:39:01 10:44:05 38° 55° (NE) 10:49:05 145.827
ZACube-1 01 Jul 10:45:35 10:50:06 62° 285° (WNW) 10:54:38 437.345
ANTELSAT 01 Jul 10:47:19 10:51:37 83° 255° (WSW) 10:56:05 437.575/2403.000
COMPASS 1 01 Jul 10:48:55 10:51:33 17° 293° (WNW) 10:54:11 437.405
Oscar 11 01 Jul 10:49:35 10:53:49 51° 286° (WNW) 10:58:01 145.826/435.025
Cosmos 2491 01 Jul 10:56:38 11:04:01 30° 70° (ENE) 11:11:21 435.465 / 435.565
FUNcube-1 01 Jul 11:01:33 11:05:53 44° 287° (WNW) 11:10:14 145.935
AUBIESAT-1 01 Jul 11:04:48 11:08:36 40° 292° (WNW) 11:12:38 437.475
BEESAT 3 01 Jul 11:11:23 11:15:20 71° 59° (ENE) 11:19:16 437.485
UWE-3 01 Jul 11:14:34 11:18:05 22° 292° (WNW) 11:21:37 435.000/436.395/437.385
NANOSAT C BR1 01 Jul 11:16:36 11:20:16 30° 70° (ENE) 11:23:56 145.865
O/OREOS (USA 219) 01 Jul 11:20:21 11:22:52 15° 56° (NE) 11:25:23 437.305
QB50P1 01 Jul 11:21:16 11:25:06 36° 72° (ENE) 11:28:57 145.935-145.965
POPSAT HIP 1 01 Jul 11:24:44 11:28:37 39° 72° (ENE) 11:32:32 437.405
HUMSAT D 01 Jul 11:31:17 11:35:37 84° 284° (WNW) 11:39:54 437.325/437.525
DELFI C3 01 Jul 11:31:22 11:35:00 34° 288° (WNW) 11:38:35 145.870
DUCHIFAT 1 01 Jul 11:35:14 11:39:12 46° 73° (ENE) 11:43:13 145.980
QB50P2 01 Jul 11:37:36 11:41:44 60° 74° (ENE) 11:45:54 145.880/145.840
TIGRISAT 01 Jul 11:39:06 11:42:32 23° 265° (W) 11:46:02 435.000
POLYITAN 1 01 Jul 11:40:14 11:44:22 62° 75° (ENE) 11:48:32 437.675
UNISAT 6 01 Jul 11:45:49 11:48:50 19° 267° (W) 11:51:56 437.425
M-CUBED/EXP-1 PRIME 01 Jul 11:48:49 11:50:26 12° 299° (WNW) 11:52:06 437.505
JAS-2 01 Jul 11:50:19 11:56:32 30° 66° (ENE) 12:02:17 435.910
BEESAT 2 01 Jul 11:55:35 11:59:33 68° 242° (WSW) 12:03:30 435.950
PHONESAT 2.4 01 Jul 12:02:10 12:03:08 11° 215° (SW) 12:04:05 2401.200-2431.200
AISAT 01 Jul 12:04:36 12:08:03 22° 95° (E) 12:11:29 437.250
ESTCUBE 1 01 Jul 12:13:02 12:17:21 44° 99° (E) 12:21:37 437.505/2401.250
DX 1 01 Jul 12:13:28 12:16:40 20° 95° (E) 12:19:50 434.975-435.025
RS-15 01 Jul 12:14:13 12:25:37 85° 301° (WNW) 12:37:44 29.354- 29.394
BUGSAT 1 01 Jul 12:17:51 12:21:49 64° 74° (ENE) 12:25:48 437.445
PCSat 01 Jul 12:22:44 12:27:18 28° 252° (WSW) 12:31:51 145.827
YUBILEINY 01 Jul 12:34:22 12:42:44 54° 90° (E) 12:51:10 435.215
CUBEBUG 1 01 Jul 12:42:21 12:46:39 64° 101° (E) 12:50:57 437.445
Cosmos 2491 01 Jul 12:52:49 13:01:15 57° 270° (W) 13:09:41 435.465 / 435.565
NANOSAT C BR1 01 Jul 12:52:56 12:56:01 20° 266° (W) 12:59:07 145.865
50 SAT 01 Jul 12:54:49 12:58:30 81° 283° (WNW) 13:02:09 437.505
O/OREOS (USA 219) 01 Jul 12:58:14 13:02:37 54° 252° (WSW) 13:06:59 437.305
QB50P1 01 Jul 12:58:16 13:00:59 17° 267° (W) 13:03:43 145.935-145.965
VELOX 1 01 Jul 12:58:57 13:03:22 88° 110° (ESE) 13:07:46 145.980
POPSAT HIP 1 01 Jul 13:02:02 13:04:33 15° 267° (W) 13:07:05 437.405
AIST 2 01 Jul 13:04:33 13:08:21 33° 53° (NE) 13:12:07 435.215
DUCHIFAT 1 01 Jul 13:13:16 13:15:09 13° 268° (W) 13:17:03 145.980
SPROUT 01 Jul 13:17:45 13:22:01 63° 101° (E) 13:26:17 437.525
Oscar 19 01 Jul 13:18:42 13:23:36 46° 71° (ENE) 13:28:30 437.125/150
UKube-1 01 Jul 13:22:32 13:26:51 82° 286° (WNW) 13:31:10 .
ISS 01 Jul 13:33:07 13:35:41 21° 26° (NNE) 13:38:15 145.825
JAS-2 01 Jul 13:33:49 13:41:14 54° 260° (W) 13:48:01 435.910
Cosmos 2504 01 Jul 13:35:31 13:43:01 42° 87° (E) 13:50:58 435.465 / 435.565
AO-7 01 Jul 13:38:23 13:41:22 12° 46° (NE) 13:44:20 29.400- 29.500
AISAT 01 Jul 13:40:41 13:44:31 30° 290° (WNW) 13:48:20 437.250
DX 1 01 Jul 13:49:01 13:52:54 33° 289° (WNW) 13:56:45 434.975-435.025
ITAMSAT 1 01 Jul 13:50:50 13:53:39 15° 61° (ENE) 13:56:29 435.822/435.867
ESTCUBE 1 01 Jul 13:50:57 13:53:46 17° 295° (WNW) 13:56:34 437.505/2401.250
Gurwin Techsat 1B 01 Jul 14:01:35 14:06:43 52° 72° (ENE) 14:11:53 435.225
CUBEBUG 1 01 Jul 14:21:06 14:22:23 11° 297° (WNW) 14:23:39 437.445
TISAT 1 01 Jul 14:25:58 14:30:12 89° 273° (W) 14:34:25 437.305
RS-15 01 Jul 14:30:21 14:40:07 30° 328° (NNW) 14:50:20 29.354- 29.394
YUBILEINY 01 Jul 14:32:24 14:39:51 31° 289° (WNW) 14:47:27 435.215
AIST 2 01 Jul 14:43:28 14:46:37 21° 249° (WSW) 14:49:44 435.215
SWISSCUBE 01 Jul 14:51:05 14:55:23 32° 97° (E) 14:59:38 437.505
SPROUT 01 Jul 14:56:07 14:57:24 11° 296° (WNW) 14:58:43 437.525
Oscar 19 01 Jul 14:59:30 15:03:07 19° 267° (W) 15:06:44 437.125/150
SO-50 01 Jul 15:08:08 15:12:51 52° 117° (ESE) 15:17:37 436.795
ISS 01 Jul 15:09:08 15:12:19 51° 223° (SW) 15:15:29 145.825
BEESAT 01 Jul 15:15:41 15:20:22 53° 100° (E) 15:25:02 436.000
ITUPSAT 1 01 Jul 15:18:57 15:23:41 56° 101° (E) 15:28:23 437.325
AO-7 01 Jul 15:24:15 15:32:22 59° 66° (ENE) 15:40:30 29.400- 29.500
ITAMSAT 1 01 Jul 15:27:19 15:32:30 69° 258° (WSW) 15:37:44 435.822/435.867
Cosmos 2504 01 Jul 15:28:46 15:36:20 40° 287° (WNW) 15:44:25 435.465 / 435.565
Gurwin Techsat 1B 01 Jul 15:43:22 15:46:56 18° 267° (W) 15:50:32 435.225
JUGNU 01 Jul 15:55:57 15:58:12 12° 179° (S) 16:00:27 437.505
AIST 1 01 Jul 16:15:58 16:18:55 18° 87° (E) 16:21:52
SWISSCUBE 01 Jul 16:29:07 16:33:00 25° 293° (WNW) 16:36:51 437.505
GONETS M04 01 Jul 16:43:50 16:45:57 11° 74° (ENE) 16:48:03
KKS-1 01 Jul 16:46:59 16:51:23 58° 101° (E) 16:55:46 437.445
SO-50 01 Jul 16:49:54 16:53:38 21° 314° (NW) 16:57:22 436.795
RS-15 01 Jul 16:50:45 16:58:31 18° 3° (N) 17:06:24 29.354- 29.394
BEESAT 01 Jul 16:54:48 16:57:42 16° 296° (WNW) 17:00:35 436.000
ITUPSAT 1 01 Jul 16:58:16 17:01:01 15° 297° (WNW) 17:03:47 437.325
MOZHAYETS 4 01 Jul 17:01:57 17:06:37 80° 103° (ESE) 17:11:13
HORYU 2 01 Jul 17:08:38 17:13:02 77° 76° (ENE) 17:17:30 437.375
STARS 01 Jul 17:09:48 17:14:07 50° 100° (E) 17:18:24 437.465
NOAA 15 01 Jul 17:11:36 17:15:11 19° 64° (ENE) 17:18:47 137.62
BRITE-PL 01 Jul 17:15:50 17:18:52 17° 67° (ENE) 17:21:47 437.365/2234.400
SRMSAT 01 Jul 17:17:35 17:19:19 11° 174° (S) 17:21:04 437.500
AO-7 01 Jul 17:18:28 17:25:27 30° 264° (W) 17:32:32 29.400- 29.500
AIST 1 01 Jul 17:52:23 17:56:15 32° 283° (WNW) 18:00:07
Cubesat XI-IV 01 Jul 17:59:42 18:04:35 37° 69° (ENE) 18:09:29 437.490
Cosmos 2499 01 Jul 18:02:14 18:09:14 31° 83° (E) 18:16:32 435.465 / 435.565
LilacSat-2 01 Jul 18:08:20 18:11:44 33° 72° (ENE) 18:15:11 437.200
DOVE 4 01 Jul 18:16:06 18:17:37 12° 65° (ENE) 18:19:07 437.250
NOAA 18 01 Jul 18:21:48 18:27:13 67° 72° (ENE) 18:32:41 137.9125
KKS-1 01 Jul 18:25:22 18:27:27 13° 296° (WNW) 18:29:30 437.445
CUTE-I 01 Jul 18:32:23 18:37:43 76° 74° (ENE) 18:43:05 437.470
GONETS M04 01 Jul 18:32:26 18:41:03 71° 93° (E) 18:49:41
CUBESAT XI-V 01 Jul 18:38:58 18:43:35 82° 285° (WNW) 18:48:11 437.345
MOZHAYETS 4 01 Jul 18:42:31 18:43:04 10° 298° (WNW) 18:43:37
STARS 01 Jul 18:47:38 18:50:02 15° 296° (WNW) 18:52:25 437.465
CUSAT 1 01 Jul 18:48:18 18:51:33 76° 264° (W) 18:54:16 437.405
NOAA 15 01 Jul 18:49:21 18:54:31 54° 259° (W) 18:59:42 137.62
BRITE-PL 01 Jul 18:52:13 18:57:03 48° 260° (W) 19:01:33 437.365/2234.400
HO-68 01 Jul 18:54:10 18:59:21 22° 59° (ENE) 19:04:33 435.675
RS-15 01 Jul 19:05:35 19:16:28 35° 38° (NE) 19:27:20 29.354- 29.394
SRMSAT 01 Jul 19:05:43 19:07:35 11° 185° (S) 19:09:27 437.500
GOMX 1 01 Jul 19:08:00 19:12:34 74° 259° (WSW) 19:16:52 467.674
Cubesat XI-IV 01 Jul 19:40:16 19:44:41 26° 265° (W) 19:49:08 437.490
DANDE 01 Jul 19:43:38 19:47:51 49° 267° (W) 19:51:02 436.750
LilacSat-2 01 Jul 19:43:58 19:46:08 15° 267° (W) 19:48:20 437.200
STRAND 1 01 Jul 19:47:12 19:51:48 32° 97° (E) 19:56:21 437.568
DOVE 4 01 Jul 19:50:41 19:54:53 54° 259° (W) 19:58:59 437.250
Cosmos 2499 01 Jul 19:53:38 20:01:48 55° 282° (WNW) 20:10:28 435.465 / 435.565
CUBEBUG 2 01 Jul 19:55:46 19:57:35 13° 64° (ENE) 19:59:24 437.445
COMPASS 1 01 Jul 20:02:06 20:05:22 22° 69° (ENE) 20:08:39 437.405
NOAA 18 01 Jul 20:05:26 20:08:20 14° 269° (W) 20:11:15 137.9125
CANX-2 01 Jul 20:13:12 20:17:28 71° 75° (ENE) 20:21:45 2200.000
CUTE-I 01 Jul 20:16:13 20:18:17 12° 270° (W) 20:20:21 437.470
AUBIESAT-1 01 Jul 20:18:00 20:19:19 12° 61° (ENE) 20:20:38 437.475
CINEMA 3 01 Jul 20:20:06 20:24:14 84° 77° (ENE) 20:28:26 145.822/145.860
FUNcube-1 01 Jul 20:23:07 20:23:47 10° 63° (ENE) 20:24:28 145.935
SEEDS 01 Jul 20:29:53 20:34:06 67° 76° (ENE) 20:38:21 437.485
GONETS M04 01 Jul 20:32:04 20:38:38 23° 293° (WNW) 20:45:15
CUTE 1.7 + AOD 2 01 Jul 20:32:28 20:36:45 80° 257° (WSW) 20:41:05 437.475
UWE-3 01 Jul 20:33:49 20:37:08 23° 68° (ENE) 20:40:31 435.000/436.395/437.385
AO-85 01 Jul 20:39:00 20:44:13 49° 116° (ESE) 20:49:19 145.980
HO-68 01 Jul 20:39:14 20:46:21 71° 256° (WSW) 20:53:33 435.675
M-CUBED/EXP-1 PRIME 01 Jul 20:58:28 21:01:37 52° 70° (ENE) 21:04:51 437.505
AAUSAT CUBESAT 2 01 Jul 20:58:40 21:02:51 80° 79° (E) 21:07:04 437.432
RS-15 01 Jul 21:18:05 21:30:28 83° 243° (WSW) 21:42:40 29.354- 29.394
STRAND 1 01 Jul 21:26:29 21:30:51 28° 293° (WNW) 21:35:11 437.568
CUBEBUG 2 01 Jul 21:29:37 21:33:41 53° 260° (W) 21:37:53 437.445
COMPASS 1 01 Jul 21:37:07 21:40:46 28° 264° (W) 21:44:25 437.405
ZACube-1 01 Jul 21:39:39 21:43:51 85° 79° (E) 21:48:12 437.345
PRISM 01 Jul 21:41:42 21:45:47 77° 103° (ESE) 21:49:50 437.425
Oscar 11 01 Jul 21:42:18 21:46:38 83° 257° (WSW) 21:51:02 145.826/435.025
AUBIESAT-1 01 Jul 21:50:31 21:53:31 32° 257° (WSW) 21:56:34 437.475
FUNcube-1 01 Jul 21:55:13 21:59:23 68° 259° (W) 22:03:42 145.935
UWE-3 01 Jul 22:09:51 22:13:27 27° 264° (W) 22:17:08 435.000/436.395/437.385
DELFI C3 01 Jul 22:15:02 22:19:03 77° 258° (WSW) 22:23:07 145.870
AO-85 01 Jul 22:20:28 22:24:56 26° 312° (NW) 22:29:16 145.980
HUMSAT D 01 Jul 22:20:47 22:24:51 53° 74° (ENE) 22:29:00 437.325/437.525
ANTELSAT 01 Jul 22:40:45 22:44:33 24° 95° (E) 22:48:20 437.575/2403.000
YUBILEINY 01 Jul 22:46:54 22:53:50 25° 68° (ENE) 23:00:43 435.215
AISAT 01 Jul 23:01:13 23:04:08 18° 66° (ENE) 23:07:03 437.250
DX 1 01 Jul 23:08:24 23:10:57 15° 65° (ENE) 23:13:30 434.975-435.025
ESTCUBE 1 01 Jul 23:11:04 23:15:10 35° 71° (ENE) 23:19:17 437.505/2401.250
QB50P2 01 Jul 23:26:22 23:27:34 11° 91° (E) 23:28:46 145.880/145.840
POLYITAN 1 01 Jul 23:28:50 23:30:13 11° 91° (E) 23:31:37 437.675
TIGRISAT 01 Jul 23:30:33 23:35:15 79° 102° (ESE) 23:39:57 435.000
50 SAT 01 Jul 23:31:10 23:34:32 33° 72° (ENE) 23:37:56 437.505
Cosmos 2504 01 Jul 23:31:49 23:36:09 14° 60° (ENE) 23:40:23 435.465 / 435.565
RS-15 01 Jul 23:33:22 23:41:01 19° 262° (W) 23:48:38 29.354- 29.394
CUBEBUG 1 01 Jul 23:36:45 23:40:52 43° 73° (ENE) 23:44:59 437.445
UNISAT 6 01 Jul 23:36:59 23:41:41 84° 282° (WNW) 23:46:24 437.425
SO-50 01 Jul 23:41:18 23:45:28 31° 50° (NE) 23:49:31 436.795
VELOX 1 01 Jul 23:54:31 23:58:53 64° 75° (ENE) 00:03:15 145.980
Cosmos 2491 01 Jul 23:56:09 00:03:50 36° 85° (E) 00:11:28 435.465 / 435.565
HUMSAT D 01 Jul 23:59:25 00:00:47 11° 269° (W) 00:02:12 437.325/437.525
BUGSAT 1 02 Jul 00:03:54 00:04:26 10° 91° (E) 00:04:57 437.445
SPROUT 02 Jul 00:09:52 00:13:48 38° 72° (ENE) 00:17:45 437.525
UKube-1 02 Jul 00:15:18 00:19:34 68° 75° (ENE) 00:23:52 .
ANTELSAT 02 Jul 00:17:05 00:21:14 32° 290° (WNW) 00:25:24 437.575/2403.000
AISAT 02 Jul 00:36:09 00:40:17 40° 261° (W) 00:44:26 437.250
NANOSAT C BR1 02 Jul 00:37:17 00:41:32 70° 101° (E) 00:45:46 145.865
QB50P1 02 Jul 00:42:29 00:46:47 85° 103° (ESE) 00:51:03 145.935-145.965
YUBILEINY 02 Jul 00:42:35 00:51:21 69° 267° (W) 01:00:05 435.215
DX 1 02 Jul 00:42:35 00:46:45 45° 260° (W) 00:50:55 434.975-435.025
POPSAT HIP 1 02 Jul 00:46:05 00:50:22 89° 283° (WNW) 00:54:39 437.405
JAS-2 02 Jul 00:46:55 00:50:44 19° 92° (E) 00:54:25 435.910
ESTCUBE 1 02 Jul 00:48:40 00:52:02 20° 266° (W) 00:55:26 437.505/2401.250
DUCHIFAT 1 02 Jul 00:56:00 01:00:14 75° 285° (WNW) 01:04:29 145.980
QB50P2 02 Jul 00:59:30 01:03:42 57° 285° (WNW) 01:07:53 145.880/145.840
BEESAT 3 02 Jul 01:01:56 01:04:25 16° 110° (ESE) 01:06:55 437.485
POLYITAN 1 02 Jul 01:02:08 01:06:20 56° 286° (WNW) 01:10:32 437.675
50 SAT 02 Jul 01:06:20 01:08:19 14° 267° (W) 01:10:19 437.505
TIGRISAT 02 Jul 01:10:08 01:11:16 11° 298° (WNW) 01:12:23 435.000
CUBEBUG 1 02 Jul 01:14:50 01:17:21 15° 267° (W) 01:19:51 437.445
TISAT 1 02 Jul 01:15:58 01:20:01 54° 74° (ENE) 01:24:05 437.305
PCSat 02 Jul 01:19:02 01:24:09 45° 112° (ESE) 01:29:20 145.827
SO-50 02 Jul 01:21:56 01:25:51 27° 248° (WSW) 01:29:38 436.795
Cosmos 2504 02 Jul 01:22:20 01:31:13 75° 81° (E) 01:39:35 435.465 / 435.565
O/OREOS (USA 219) 02 Jul 01:31:02 01:34:15 20° 101° (E) 01:37:29 437.305
Oscar 19 02 Jul 01:32:37 01:36:05 18° 93° (E) 01:39:32 437.125/150
VELOX 1 02 Jul 01:35:11 01:35:44 10° 269° (W) 01:36:17 145.980
BUGSAT 1 02 Jul 01:36:03 01:40:07 57° 286° (WNW) 01:44:11 437.445
BEESAT 2 02 Jul 01:46:25 01:49:49 28° 113° (ESE) 01:53:14 435.950
SPROUT 02 Jul 01:47:15 01:49:53 16° 267° (W) 01:52:32 437.525
Cosmos 2491 02 Jul 01:52:02 02:00:22 47° 284° (WNW) 02:08:43 435.465 / 435.565
SWISSCUBE 02 Jul 01:56:07 02:00:21 32° 69° (ENE) 02:04:36 437.505
NANOSAT C BR1 02 Jul 02:16:26 02:16:39 10° 297° (WNW) 02:16:54 145.865
Gurwin Techsat 1B 02 Jul 02:19:53 02:24:04 23° 94° (E) 02:28:12 435.225
BEESAT 02 Jul 02:20:28 02:25:06 52° 72° (ENE) 02:29:45 436.000
ITUPSAT 1 02 Jul 02:24:04 02:28:45 55° 73° (ENE) 02:33:27 437.325
JAS-2 02 Jul 02:30:59 02:36:10 44° 290° (WNW) 02:41:03 435.910
BEESAT 3 02 Jul 02:38:07 02:41:47 37° 306° (NW) 02:45:29 437.485
YUBILEINY 02 Jul 02:44:34 02:46:22 11° 286° (WNW) 02:48:09 435.215
TISAT 1 02 Jul 02:54:50 02:55:58 11° 269° (W) 02:57:07 437.305
PCSat 02 Jul 03:03:17 03:07:45 26° 309° (NW) 03:12:15 145.827
O/OREOS (USA 219) 02 Jul 03:09:16 03:13:23 35° 297° (WNW) 03:17:31 437.305
Oscar 19 02 Jul 03:10:43 03:15:39 49° 288° (WNW) 03:20:34 437.125/150
Cosmos 2504 02 Jul 03:17:23 03:23:33 22° 281° (W) 03:29:32 435.465 / 435.565
BEESAT 2 02 Jul 03:24:22 03:27:37 24° 310° (NW) 03:30:54 435.950
AO-7 02 Jul 03:29:04 03:34:40 19° 92° (E) 03:40:13 29.400- 29.500
SWISSCUBE 02 Jul 03:34:13 03:38:08 25° 265° (W) 03:42:04 437.505
ITAMSAT 1 02 Jul 03:41:41 03:46:45 47° 100° (E) 03:51:45 435.822/435.867
KKS-1 02 Jul 03:43:32 03:47:42 43° 72° (ENE) 03:51:54 437.445
Gurwin Techsat 1B 02 Jul 03:59:08 04:04:07 41° 290° (WNW) 04:09:04 435.225
AIST 1 02 Jul 04:00:16 04:04:25 48° 80° (E) 04:08:32
BEESAT 02 Jul 04:00:24 04:03:09 15° 268° (W) 04:05:56 436.000
MOZHAYETS 4 02 Jul 04:02:01 04:06:34 63° 75° (ENE) 04:11:11
ITUPSAT 1 02 Jul 04:04:20 04:06:53 14° 268° (W) 04:09:28 437.325
STARS 02 Jul 04:05:03 04:09:02 36° 71° (ENE) 04:13:03 437.465
PHONESAT 2.4 02 Jul 04:31:18 04:33:14 16° 147° (SSE) 04:35:10 2401.200-2431.200
AIST 2 02 Jul 04:38:25 04:42:30 72° 301° (WNW) 04:46:39 435.215
GONETS M04 02 Jul 04:44:53 04:52:32 32° 71° (ENE) 05:00:09
HORYU 2 02 Jul 05:02:10 05:05:00 16° 93° (E) 05:07:50 437.375
AO-85 02 Jul 05:13:10 05:16:57 26° 48° (NE) 05:20:29 145.980
AO-7 02 Jul 05:19:50 05:28:14 82° 290° (WNW) 05:36:35 29.400- 29.500
KKS-1 02 Jul 05:21:50 05:24:28 15° 267° (W) 05:27:07 437.445
ITAMSAT 1 02 Jul 05:22:03 05:25:50 21° 296° (WNW) 05:29:36 435.822/435.867
AIST 1 02 Jul 05:39:59 05:41:30 12° 275° (W) 05:43:01
CUBESAT XI-V 02 Jul 05:40:21 05:45:03 81° 77° (ENE) 05:49:45 437.345
STARS 02 Jul 05:42:32 05:45:30 18° 266° (W) 05:48:29 437.465
MOZHAYETS 4 02 Jul 05:42:33 05:44:08 12° 270° (W) 05:45:43
Cosmos 2499 02 Jul 05:46:56 05:55:26 54° 77° (ENE) 06:03:19 435.465 / 435.565
CUSAT 1 02 Jul 06:06:08 06:10:55 19° 88° (E) 06:15:14 437.405
PHONESAT 2.4 02 Jul 06:06:26 06:09:30 73° 160° (SSE) 06:12:33 2401.200-2431.200
Cubesat XI-IV 02 Jul 06:19:25 06:22:44 16° 92° (E) 06:26:02 437.490
HORYU 2 02 Jul 06:37:29 06:41:44 43° 288° (WNW) 06:45:59 437.375
GONETS M04 02 Jul 06:41:16 06:49:36 52° 270° (W) 06:57:59
NOAA 18 02 Jul 06:45:38 06:50:34 32° 97° (E) 06:55:28 137.9125
CUTE-I 02 Jul 06:51:15 06:56:06 34° 97° (E) 07:00:55 437.470
AO-85 02 Jul 06:53:35 06:57:23 30° 248° (WSW) 07:00:56 145.980
BRITE-PL 02 Jul 06:58:01 07:02:06 54° 100° (E) 07:06:19 437.365/2234.400
STRAND 1 02 Jul 07:01:32 07:06:18 40° 70° (ENE) 07:11:06 437.568
DANDE 02 Jul 07:03:50 07:10:48 30° 89° (E) 07:17:12 436.750
NOAA 15 02 Jul 07:05:48 07:11:01 64° 102° (ESE) 07:16:12 137.62
GOMX 1 02 Jul 07:10:46 07:14:39 32° 98° (E) 07:18:41 467.674
AO-7 02 Jul 07:14:34 07:19:45 18° 309° (NW) 07:24:58 29.400- 29.500
LilacSat-2 02 Jul 07:16:45 07:20:37 63° 101° (E) 07:24:28 437.200
Cosmos 2499 02 Jul 07:40:50 07:48:01 31° 277° (W) 07:54:50 435.465 / 435.565
PHONESAT 2.4 02 Jul 07:43:09 07:46:11 56° 358° (N) 07:49:12 2401.200-2431.200
CUSAT 1 02 Jul 07:44:59 07:52:38 75° 279° (W) 07:58:54 437.405
ISS 02 Jul 07:47:18 07:50:33 77° 322° (NW) 07:53:49 145.825
DOVE 4 02 Jul 07:50:03 07:54:16 40° 99° (E) 07:58:41 437.250
Cubesat XI-IV 02 Jul 07:57:52 08:03:09 58° 288° (WNW) 08:08:25 437.490
CANX-2 02 Jul 08:01:22 08:03:32 14° 91° (E) 08:05:40 2200.000
HO-68 02 Jul 08:09:25 08:15:05 24° 94° (E) 08:20:42 435.675
CINEMA 3 02 Jul 08:16:00 08:19:45 23° 95° (E) 08:23:36 145.822/145.860
SEEDS 02 Jul 08:17:14 08:18:59 12° 91° (E) 08:20:44 437.485
CUTE 1.7 + AOD 2 02 Jul 08:19:45 08:22:51 19° 94° (E) 08:25:55 437.475
NOAA 18 02 Jul 08:26:15 08:31:09 33° 293° (WNW) 08:36:02 137.9125
PRISM 02 Jul 08:29:29 08:33:25 44° 73° (ENE) 08:37:22 437.425
CUTE-I 02 Jul 08:31:26 08:36:01 29° 293° (WNW) 08:40:34 437.470
